Flag for Switzerland Weather past 2 weeks in Köniz, Bern, Switzerland

Now
48 °F

Partly sunny.


Feels Like: 42 °F
Forecast: 32 / 45 °F
Wind: 15 mph from West

Location: Bern / Belp

Current Time: Mar 2, 2015 at 6:18:11 PM

Latest Report: Mar 2, 2015 at 5:50 PM


Visibility: N/A

Pressure: 30.01 "Hg

Humidity: 54%

Dew point: 32 °F

Location of KönizLocation

Historic Weather in Köniz — Graph

°F

Köniz temperature yesterday

Maximum temperature yesterday: 50 °F (at 11:20 PM)
Minimum temperature yesterday: 30 °F (at 12:20 AM)
Average temperature yesterday: 39 °F

Past Weeks' High & Low Weather Summary

 TemperatureHumidityPressure
High52 °F (Feb 20, 2:20 PM)100% (Feb 15, 9:50 PM)30.60 "Hg (Feb 15, 9:50 PM)
Low21 °F (Feb 20, 7:20 AM)24% (Feb 20, 3:50 PM)29.56 "Hg (Feb 21, 9:20 AM)
Average35 °F85%30.02 "Hg
* Reported Feb 15 5:20 PM — Mar 2 5:20 PM, Köniz, Weather by CustomWeather, © 2015

Note: Actual official high and low records may vary slightly from our data, if they occured in-between our weather recording intervals... More about our weather records

Advertising

Köniz weather history for previous 24 hours

 ConditionsComfort  
Time TempWeatherWind HumidityBarometerVisibility
5:20 PM
Mon, Mar 2
48 °FPartly sunny.15 mph54%29.98 "HgN/A
4:50 PM46 °FPartly sunny.3 mph66%29.98 "HgN/A
4:20 PM43 °FBroken clouds.6 mph81%29.98 "HgN/A
3:50 PM41 °FScattered clouds.16 mph81%29.98 "HgN/A
3:20 PM48 °FSprinkles. Partly sunny.8 mph58%29.95 "HgN/A
2:50 PM48 °FBroken clouds.13 mph58%29.95 "HgN/A
2:20 PM48 °FBroken clouds.5 mph76%29.92 "HgN/A
1:50 PM45 °FSprinkles. Partly sunny.5 mph81%29.92 "HgN/A
1:20 PM43 °FSprinkles. Partly sunny.13 mph81%29.92 "Hg4 mi
12:50 PM41 °FSprinkles. Broken clouds.23 mph87%29.95 "Hg3 mi
12:20 PM50 °FBroken clouds.29 mph62%29.92 "HgN/A
11:50 AM52 °FPartly sunny.13 mph62%29.89 "HgN/A
11:20 AM50 °FPartly sunny.12 mph67%29.86 "HgN/A
10:50 AM50 °FBroken clouds.8 mph67%29.86 "HgN/A
10:20 AM48 °FBroken clouds.8 mph71%29.86 "HgN/A
9:50 AM50 °FBroken clouds.10 mph71%29.86 "HgN/A
9:20 AM48 °FBroken clouds.9 mph76%29.86 "HgN/A
8:50 AM48 °FBroken clouds.7 mph76%29.86 "HgN/A
8:20 AM48 °FBroken clouds.7 mph76%29.83 "HgN/A
7:50 AM48 °FLight rain. Broken clouds.13 mph82%29.83 "HgN/A
7:20 AM48 °FRain. Broken clouds.15 mph87%29.80 "Hg4 mi
6:50 AM46 °FHeavy rain. Partly cloudy.13 mph93%29.80 "Hg4 mi
6:20 AM48 °FRain. Partly cloudy.10 mph87%29.80 "Hg5 mi
5:50 AM48 °FRain. Partly cloudy.13 mph94%29.80 "Hg4 mi
5:20 AM50 °FLight rain. Passing clouds.10 mph82%29.80 "HgN/A
4:50 AM48 °FRain showers. Fog.9 mph87%29.80 "Hg3 mi
4:20 AM50 °FRain showers. Passing clouds.9 mph82%29.80 "Hg3 mi
3:50 AM50 °FPassing clouds.9 mph82%29.80 "HgN/A
3:20 AM50 °FRain showers. Passing clouds.8 mph82%29.80 "Hg6 mi
2:50 AM50 °FPartly cloudy.12 mph76%29.83 "HgN/A
2:20 AM50 °FPassing clouds.8 mph76%29.83 "HgN/A
1:50 AM48 °FLight rain. Passing clouds.5 mph82%29.83 "HgN/A
1:20 AM45 °FLight rain. Passing clouds.5 mph93%29.83 "HgN/A
12:50 AM45 °FRain. Passing clouds.2 mph93%29.83 "HgN/A
12:20 AM48 °FSprinkles. Partly cloudy.2 mph82%29.83 "HgN/A
11:50 PM
Sun, Mar 1
50 °FSprinkles. Passing clouds.6 mph71%29.86 "HgN/A
11:20 PM50 °FPassing clouds.3 mph71%29.83 "HgN/A
10:50 PM45 °FPassing clouds.2 mph93%29.86 "HgN/A
10:20 PM43 °FLight rain. Partly cloudy.3 mph93%29.86 "HgN/A
9:50 PM45 °FPartly cloudy.2 mph87%29.89 "HgN/A
9:20 PM45 °FPassing clouds.6 mph87%29.86 "HgN/A
8:20 PM43 °FRain showers. Passing clouds.8 mph93%29.86 "Hg5 mi
7:50 PM43 °FPassing clouds.7 mph93%29.89 "HgN/A
7:20 PM43 °FSprinkles. Passing clouds.2 mph93%29.89 "HgN/A
6:50 PM43 °FPassing clouds.9 mph93%29.89 "HgN/A
6:20 PM45 °FSprinkles. Passing clouds.6 mph87%29.89 "HgN/A
Weather by CustomWeather, © 2015

See weather overviewHow to use our weather pages